Maksim Ismayilov

首席球探 - AZAL
12 五月 2028
星期五
處理

性格

適應力 (6) 野心 (18) 爭議性 (11) 忠誠度 (16) 抗壓 (13) 職業素養 (9) 體育精神 (11) 性情 (14)

個人檔案

執教風格 民主型
教練證照 洲際C級
決心 3
人員管理 2
激勵 2
紀律 7
工作滿意度
100%
疲勞度
0%
職務 首席球探
薪資 27.5K 每週
合約 14.03.2029

性能

行為 良好
訓練效果
26%
球員發展
35%
傷病預防
15%
戰術執行
20%

正在监控

86
球員 俱樂部 狀態 能力 信心 已观察 最后观察 最新投票
Süleyman Damadayev Gabala 活跃 86 / 89 55% 1 07.01.2028 -
David Veliz Güemes 活跃 110 / 121 40% 1 05.01.2028 -
Franco Malagueño Colegiales 活跃 94 / 100 40% 1 05.01.2028 -
Matías Viguet Maipú 活跃 103 / 121 40% 1 04.01.2028 -
Ilja Ivarlak Spartaks 活跃 68 / 75 66% 1 01.01.2028 赞成
Ilya Tishurov Osipovichi 活跃 73 / 95 40% 1 31.08.2027 -
Alejandro Melo Temperley 活跃 118 / 114 40% 1 31.08.2027 -
Lisandro Cabrera Maipú 活跃 101 / 133 40% 2 30.08.2027 -
José Rondón Zulia 活跃 82 / 104 40% 2 30.08.2027 -
Luciano Peraggini Maipú 活跃 92 / 121 40% 1 29.08.2027 -
Aleksandar Lyubenov Dobrudzha 活跃 85 / 81 40% 1 29.08.2027 -
Abdoulaye Mahamat US Moursal 活跃 63 / 83 40% 1 28.08.2027 -
Abubakar Bonni Enyimba 活跃 73 / 107 40% 1 28.08.2027 -
Joshua Oluwayemi Newport County 活跃 108 / 117 40% 1 28.08.2027 -
Efraín Ustariz Beroe 活跃 116 / 102 40% 1 28.08.2027 -
Renato Solís Estudiantes 活跃 120 / 133 40% 2 27.08.2027 -
Gustavo Calderari Colegiales 活跃 101 / 114 40% 1 27.08.2027 -
Marcelo Miño Ferro Carril Oeste 活跃 108 / 129 40% 1 25.08.2027 -
Alexis Domínguez Chacarita Juniors 活跃 125 / 125 40% 1 25.08.2027 -
Facundo Castelli Estudiantes 活跃 102 / 99 40% 1 24.08.2027 -
Sergey Volkov Rodina 活跃 95 / 125 40% 2 23.08.2027 -
Laureano Martínez Talleres 活跃 112 / 94 40% 1 21.08.2027 -
Galin Grigorov Septemvri 活跃 113 / 124 40% 1 21.08.2027 -
Cameron Dawson Bradford City 活跃 111 / 91 40% 1 20.08.2027 -
Joaquín Bigo Gimnasia La Plata 活跃 116 / 120 40% 1 19.08.2027 -
Carlos Guerreño Minsk 活跃 96 / 97 40% 1 19.08.2027 -
Esteban da Silva Racing 活跃 131 / 125 40% 1 18.08.2027 -
Franco Rivasseau Patronato 活跃 118 / 89 40% 1 17.08.2027 -
Facundo Altamirano San Lorenzo 活跃 117 / 112 40% 1 14.08.2027 -
Marius Adamonis Neftchi 活跃 124 / 123 40% 5 12.08.2027 -
Emilio Di Fulvio Colegiales 活跃 124 / 101 40% 1 12.08.2027 -
Enzo González Defensores 活跃 114 / 90 40% 1 12.08.2027 -
Lautaro Gordillo Colegiales 活跃 109 / 101 40% 2 11.08.2027 -
Lucas Pedraza Defensores Unidos 活跃 104 / 117 40% 1 10.08.2027 -
Leonardo Bellini Pianese 活跃 102 / 116 40% 1 10.08.2027 -
Lévi Ntumba Slavia Sofia 活跃 119 / 123 40% 1 08.08.2027 -
Juan Pablo Noce Burgos 活跃 103 / 128 40% 2 07.08.2027 -
Italo Espinoza San Martín 活跃 105 / 121 40% 1 06.08.2027 -
José Miers 12 de Octubre 活跃 85 / 102 40% 1 05.08.2027 -
Maxim Belov Dinamo Brest 活跃 90 / 118 40% 1 03.08.2027 -
Álvaro Montero Boca Juniors 活跃 139 / 112 40% 1 03.08.2027 -
Salim Hashimov Zira 活跃 69 / 85 55% 1 02.08.2027 -
Charlie Brown Accrington Stanley 活跃 75 / 90 40% 1 02.08.2027 -
Agustín Lastra Newell's Old Boys 活跃 118 / 96 40% 1 01.08.2027 -
Pedro López Ceuta 活跃 100 / 92 40% 1 01.08.2027 -
Tomás Bolzicco Chaco For Ever 活跃 106 / 107 40% 1 31.07.2027 -
Lucas Bonelli Felgueiras 活跃 123 / 94 40% 1 29.07.2027 -
Ignacio Chicco Aldosivi 活跃 141 / 130 40% 1 26.07.2027 -
Johan Portilla Torpedo Moscow 活跃 91 / 103 40% 1 24.07.2027 -
Afran Sadygov Inter 活跃 96 / 98 40% 3 23.07.2027 -
Saliou Guindo MC Oran 活跃 82 / 101 40% 1 23.07.2027 -
Neneca Santa Clara 活跃 88 / 127 40% 1 20.07.2027 -
Beryly Lubala Vicenza 活跃 90 / 123 40% 1 20.07.2027 -
Destiny Efosa Egharevba Picerno 活跃 88 / 114 40% 1 17.07.2027 -
Kabiru Abdullahi Northampton Town 活跃 78 / 110 40% 1 16.07.2027 -
Chinedu Onyinjekwu Bayelsa United 活跃 81 / 86 40% 1 16.07.2027 -
Pedro González Cerro Largo 活跃 124 / 106 40% 1 15.07.2027 -
Sheldon Dinesh Stockport County 活跃 112 / 125 40% 1 14.07.2027 -
Kənan Feyziyev Sumgayit 活跃 81 / 65 51% 1 12.07.2027 -
Bogdan Ovsyannikov Orenburg 活跃 107 / 128 40% 1 11.07.2027 -
Danil Karpov Chernomorets 活跃 86 / 107 40% 1 08.07.2027 -
Ilja Gruznov Khimik 活跃 74 / 103 40% 1 06.07.2027 -
Petr Kudakovskiy Shinnik 活跃 96 / 92 40% 1 04.07.2027 -
Nikita Chagrov Rotor 活跃 118 / 84 40% 3 03.07.2027 -
Aydın Bayramov Zira 活跃 88 / 114 40% 1 03.07.2027 -
Nahuel Yzaurralde Quilmes 活跃 92 / 118 40% 3 29.06.2027 -
Alexandr Degtev Sochi 活跃 89 / 113 40% 1 25.06.2027 -
Daniil Frolkin Fakel 活跃 127 / 110 40% 1 24.06.2027 -
Kenan Pirić Neftchi 活跃 116 / 97 40% 1 24.06.2027 -
Nicholas Ammeter Arouca 活跃 97 / 121 40% 1 22.06.2027 -
Alexey Kuznetsov Leningradets 活跃 110 / 112 40% 2 21.06.2027 -
Petr Kosarevskiy Sibir 活跃 111 / 108 40% 1 20.06.2027 -
Javier Vallejos Central Córdoba SdE 活跃 87 / 121 40% 1 19.06.2027 -
Daniel Bachmann Watford 活跃 103 / 120 40% 2 18.06.2027 -
Vitaly Gudiev Akron 活跃 117 / 112 40% 1 14.06.2027 -
Fabricio Hass Gijón 活跃 93 / 106 40% 1 09.06.2027 -
Igor Gorbunov Arsenal Tula 活跃 106 / 77 40% 1 31.01.2027 -
Đorđe Pantelić Spartak Kostroma 活跃 118 / 86 40% 2 30.01.2027 -
David Karaev KAMAZ 活跃 94 / 102 40% 1 30.01.2027 -
Géza Dávid Turi Grimsby Town 活跃 90 / 80 40% 1 28.01.2027 -
Miguel Sousa Leixões 活跃 111 / 130 40% 1 24.01.2027 -
Ilja Zhigulev Chernomorets 活跃 102 / 100 40% 1 19.01.2027 -
Brahim Konaté Zira 活跃 101 / 107 40% 1 11.01.2027 -
Islam Imamov SKA Khabarovsk 活跃 100 / 75 40% 1 01.01.2027 -
Luca Fernández Barracas Central 活跃 61 / 104 40% 1 24.08.2026 -
Zacarías López Iquique 活跃 83 / 83 40% 1 01.08.2026 -